Terminal Aerodrome Forecast
Issued by NWS

Home | Current Version | Previous Version | Text Only | Print | Product List | Glossary On
Versions: 1 2 3 4 5 6 7 8 9 10 11 12 13 14 15 16 17 18 19 20 21 22 23 24 25 26 27 28 29 30 31 32 33 34 35 36 37 38 39 40 41 42 43 44 45 46
000
FTUS44 KHGX 230254 AAB
TAFUTS
TAF AMD
KUTS 230254Z 2303/2324 VRB03KT 6SM -TSRA BR FEW005 BKN010 OVC018CB
     FM230500 14007KT 5SM -TSRA BR SCT007 OVC015CB
      TEMPO 2306/2308 VRB15G30KT 1SM +TSRA BR BKN007 OVC012CB
     FM230800 21007KT P6SM BKN025 OVC050
     FM231200 24008KT P6SM SCT050 BKN100
     FM231500 24010KT P6SM SKC=

USA.gov is the U.S. government's official web portal to all federal, state and local government web resources and services.